Regional Weather Roundup
Issued by NWS

Home | Current Version | Previous Version | Graphics & Text | Print | Product List | Glossary On
Versions: 1 2 3 4 5 6 7 8 9 10 11 12 13 14 15 16 17 18 19 20 21 22 23 24 25 26 27 28 29 30 31 32 33 34 35 36 37 38 39 40 41 42 43 44 45 46 47 48 49 50
000
ASUS43 KOAX 030602
RWRNE

WEATHER ROUNDUP FOR NEBRASKA
NATIONAL WEATHER SERVICE OMAHA NE
100 AM CDT THU SEP 03 2015

NOTES: SATELLITE DATA IS BEING USED TO AUGMENT CLOUD COVER ABOVE
       12000 FEET.
       "FAIR" INDICATES FEW OR NO CLOUDS BELOW 12,000 FEET WITH NO
       SIGNIFICANT WEATHER AND/OR OBSTRUCTIONS TO VISIBILITY.

  * THESE STATIONS DO NOT REPORT WEATHER SUCH AS RAIN...SNOW OR FOG.

NEZ001>004-019>022-054>056-030700-
NEBRASKA PANHANDLE

CITY           SKY/WX    TMP DP  RH WIND       PRES   REMARKS
SCOTTSBLUFF    PTCLDY    68  52  56 E5        29.91S
6HR MIN TEMP:  68; 6HR MAX TEMP:  92;

ALLIANCE       CLEAR     63  50  62 SE7       29.91S
6HR MIN TEMP:  61; 6HR MAX TEMP:  93;

CHADRON        CLEAR     72  44  36 W6        29.83S
6HR MIN TEMP:  71; 6HR MAX TEMP:  94;

KIMBALL        PTCLDY    64  46  53 SW7       29.98S
SIDNEY         PTCLDY    67  48  50 S3        29.96S
6HR MIN TEMP:  63; 6HR MAX TEMP:  91;

$$

NEZ057>060-069>072-079>082-030700-
SOUTHWEST NEBRASKA

CITY           SKY/WX    TMP DP  RH WIND       PRES   REMARKS
NORTH PLATTE   PTCLDY    68  64  87 E6        29.86S
6HR MIN TEMP:  67; 6HR MAX TEMP:  89;

IMPERIAL       CLEAR     71  56  58 E6        29.87F
6HR MIN TEMP:  68; 6HR MAX TEMP:  95;

LEXINGTON      PTCLDY    69  64  85 E6        29.85S
MC COOK        MOCLDY    76  58  53 SE6       29.84S
6HR MIN TEMP:  74; 6HR MAX TEMP:  96;

OGALLALA       PTCLDY    74  58  57 E5        29.88F
$$

NEZ005>010-023>029-035>040-094-030700-
NORTH CENTRAL NEBRASKA

CITY           SKY/WX    TMP DP  RH WIND       PRES   REMARKS
VALENTINE      CLEAR     75  60  59 SW12      29.83S
6HR MIN TEMP:  75; 6HR MAX TEMP:  96;

AINSWORTH      CLEAR     72  62  71 S9        29.84F
BROKEN BOW     CLEAR     64  61  90 CALM      29.86S
6HR MIN TEMP:  64; 6HR MAX TEMP:  91;

O`NEILL        CLEAR     73  69  89 SE5       29.84F
ORD            CLEAR     69  66  90 CALM      29.83F
6HR MIN TEMP:  66; 6HR MAX TEMP:  91;

THEDFORD       CLEAR     69  62  78 CALM      29.87F
$$

NEZ041-046>049-061>064-073>077-083>087-030700-
SOUTH CENTRAL NEBRASKA

CITY           SKY/WX    TMP DP  RH WIND       PRES   REMARKS
GRAND ISLAND   FAIR      74  64  71 S10       29.85F
6HR MIN TEMP:  74; 6HR MAX TEMP:  91;

AURORA         FAIR      74  67  80 S10       29.85F
HASTINGS       FAIR      77  63  61 S10       29.86S
6HR MIN TEMP:  77; 6HR MAX TEMP:  91;

HEBRON         FAIR      78  63  58 S14G22    29.87S
HOLDREGE       FAIR      70  61  72 SE5       29.86R
KEARNEY *      FAIR      73  61  64 S8        29.85S
YORK           FAIR      73  66  78 S8        29.86S
$$

NEZ011>018-030>034-042>045-030700-
NORTHEAST NEBRASKA

CITY           SKY/WX    TMP DP  RH WIND       PRES   REMARKS
NORFOLK        FAIR      74  68  81 S10       29.84S
6HR MIN TEMP:  73; 6HR MAX TEMP:  86;

ALBION         FAIR      71  67  87 SE5       29.85F
BLAIR          FAIR      76  67  75 S10       29.88S
COLUMBUS *     FAIR      73  64  73 SE3       29.85F
FREMONT        FAIR      77  67  70 SE10      29.86S
TEKAMAH        FAIR      73  70  90 SE7       29.85S
6HR MIN TEMP:  72; 6HR MAX TEMP:  86;

$$

NEZ050>053-065>068-078-088>093-030700-
SOUTHEAST NEBRASKA

CITY           SKY/WX    TMP DP  RH WIND       PRES   REMARKS
LINCOLN        FAIR      74  67  78 S7        29.87S
6HR MIN TEMP:  74; 6HR MAX TEMP:  88;

OMAHA EPPLEY   FAIR      78  70  76 S14       29.87S
6HR MIN TEMP:  78; 6HR MAX TEMP:  88;

BEATRICE       FAIR      76  67  72 S10       29.88S
FALLS CITY     FAIR      77  69  76 S9        29.89F
6HR MIN TEMP:  77; 6HR MAX TEMP:  86;

NEBRASKA CITY  FAIR      74  67  77 S10       29.89S
PLATTSMOUTH    FAIR      74  68  80 SE10      29.88F
$$

NEZ044-045-051>053-067-030700-
OMAHA AREA

CITY           SKY/WX    TMP DP  RH WIND       PRES   REMARKS
EPPLEY FIELD   FAIR      78  70  76 S14       29.87S
6HR MIN TEMP:  78; 6HR MAX TEMP:  88;

BLAIR          FAIR      76  67  75 S10       29.88S
FREMONT        FAIR      77  67  70 SE10      29.86S
MILLARD        FAIR      76  70  80 SE6       29.87F
OFFUTT AFB     FAIR      76  70  83 SE7       29.87S
PLATTSMOUTH    FAIR      74  68  80 SE10      29.88F
WAHOO          FAIR      71  68  90 SE7       29.86S
$$



USA.gov is the U.S. government's official web portal to all federal, state and local government web resources and services.